Location: Buckeye Ditch
(40.9104°N, 122.9517°W)
Time: 14:28:28
(UTC+00:00)

A-11 Canister half - Pass Details

Date: 23 May 2025
Orbit: 1515 x 1684 km, 47.2° (Epoch: 14 June)

Event Time Altitude Azimuth Distance (km) Brightness Sun altitude
Rises 10:51:03 0° 289° (WNW) 4,714 11.3 -17.8°
Reaches altitude 10° 10:54:11 10° 292° (WNW) 3,713 10.8 -17.4°
Maximum altitude 11:03:28 67° 15° (NNE) 1,629 9.3 -16.2°
Drops below altitude 10° 11:12:40 10° 97° (E) 3,676 11.5 -15.1°
Sets 11:15:44 0° 100° (E) 4,664 12.0 -14.7°
